| time (UTC) | temp C | wind direction | speed KPH | gust KPH | rain 1hr cm | rain 24hr cm | rain mn cm | humidity % | barometer mb |
| 20260505125009 | 21 | 65 | 1.6 | 6.4 | 0.00 | 0.00 | 0.00 | 86 | 1014.8 |
| 20260505124248 | 21 | 65 | 1.6 | 4.8 | 0.00 | 0.00 | 0.00 | 88 | 1014.8 |
| 20260505123748 | 20 | 76 | 0.0 | 4.8 | 0.00 | 0.00 | 0.00 | 89 | 1014.8 |
| 20260505123248 | 20 | 82 | 0.0 | 1.6 | 0.00 | 0.00 | 0.00 | 92 | 1014.8 |
| 20260505122746 | 19 | 1 | 0.0 | 1.6 | 0.00 | 0.00 | 0.00 | 94 | 1014.7 |
| 20260505122247 | 18 | 51 | 0.0 | 0.0 | 0.00 | 0.00 | 0.00 | 96 | 1014.6 |
| 20260505121747 | 18 | 51 | 0.0 | 0.0 | 0.00 | 0.00 | 0.00 | 98 | 1014.7 |
| 20260505121246 | 18 | 63 | 0.0 | 0.0 | 0.00 | 0.00 | 0.00 | 99 | 1014.7 |
| 20260505120747 | 18 | 84 | 0.0 | 0.0 | 0.00 | 0.00 | 0.00 | 100 | 1014.6 |
| 20260505120246 | 17 | 73 | 0.0 | 0.0 | 0.00 | 0.00 | 0.00 | 100 | 1014.4 |
| 20260505115746 | 17 | 356 | 0.0 | 0.0 | 0.00 | 0.00 | 0.00 | 100 | 1014.4 |
| 20260505115731 | 16 | 347 | 0.0 | 0.0 | 0.00 | 0.00 | 0.00 | 100 | 1014.4 |
| 20260505115002 | 16 | 347 | 0.0 | 0.0 | 0.00 | 0.00 | 0.00 | 100 | 1014.3 |
| 20260505114243 | 16 | 340 | 0.0 | 0.0 | 0.00 | 0.00 | 0.00 | 100 | 1014.3 |
| 20260505113738 | 15 | 341 | 0.0 | 0.0 | 0.00 | 0.00 | 0.00 | 100 | 1014.3 |
| 20260505113232 | 15 | 340 | 0.0 | 0.0 | 0.00 | 0.00 | 0.00 | 100 | 1014.4 |
| 20260505112724 | 14 | 340 | 0.0 | 0.0 | 0.00 | 0.00 | 0.00 | 100 | 1014.4 |
| 20260505112436 | 14 | 340 | 0.0 | 0.0 | 0.00 | 0.00 | 0.00 | 99 | 1014.4 |
| 20260505111713 | 14 | 341 | 0.0 | 0.0 | 0.00 | 0.00 | 0.00 | 100 | 1014.3 |
| 20260505111206 | 14 | 341 | 0.0 | 0.0 | 0.00 | 0.00 | 0.00 | 100 | 1014.2 |
| 20260505110701 | 14 | 341 | 0.0 | 0.0 | 0.00 | 0.00 | 0.00 | 100 | 1014.2 |
| 20260505110154 | 13 | 341 | 0.0 | 0.0 | 0.00 | 0.00 | 0.00 | 100 | 1014.1 |
| 20260505102107 | 13 | 340 | 0.0 | 0.0 | 0.00 | 0.00 | 0.00 | 100 | 1013.8 |
| 20260505101601 | 13 | 340 | 0.0 | 0.0 | 0.00 | 0.00 | 0.00 | 100 | 1013.7 |
| 20260505101322 | 13 | 340 | 0.0 | 0.0 | 0.00 | 0.00 | 0.00 | 100 | 1013.6 |
| 20260505100549 | 13 | 340 | 0.0 | 0.0 | 0.00 | 0.00 | 0.00 | 99 | 1013.6 |
| 20260505100042 | 13 | 340 | 0.0 | 0.0 | 0.00 | 0.00 | 0.00 | 99 | 1013.7 |
| 20260505095535 | 13 | 340 | 0.0 | 0.0 | 0.00 | 0.00 | 0.00 | 99 | 1013.6 |
| 20260505095250 | 13 | 340 | 0.0 | 0.0 | 0.00 | 0.00 | 0.00 | 100 | 1013.6 |
| 20260505094523 | 13 | 340 | 0.0 | 0.0 | 0.00 | 0.00 | 0.00 | 100 | 1013.4 |
| 20260505094016 | 13 | 340 | 0.0 | 0.0 | 0.00 | 0.00 | 0.00 | 100 | 1013.4 |
| 20260505093511 | 13 | 340 | 0.0 | 0.0 | 0.00 | 0.00 | 0.00 | 99 | 1013.4 |
| 20260505093005 | 13 | 340 | 0.0 | 0.0 | 0.00 | 0.00 | 0.00 | 100 | 1013.4 |
| 20260505092459 | 13 | 340 | 0.0 | 0.0 | 0.00 | 0.00 | 0.00 | 100 | 1013.4 |
| 20260505091953 | 13 | 340 | 0.0 | 0.0 | 0.00 | 0.00 | 0.00 | 100 | 1013.4 |
| 20260505091447 | 13 | 340 | 0.0 | 0.0 | 0.00 | 0.00 | 0.00 | 100 | 1013.4 |
| 20260505090941 | 13 | 340 | 0.0 | 0.0 | 0.00 | 0.00 | 0.00 | 99 | 1013.3 |
| 20260505090435 | 13 | 340 | 0.0 | 0.0 | 0.00 | 0.00 | 0.00 | 99 | 1013.3 |
| 20260505085929 | 13 | 340 | 0.0 | 0.0 | 0.00 | 0.00 | 0.00 | 99 | 1013.3 |
| 20260505085423 | 13 | 340 | 0.0 | 0.0 | 0.00 | 0.00 | 0.00 | 99 | 1013.2 |
| 20260505084917 | 13 | 340 | 0.0 | 0.0 | 0.00 | 0.00 | 0.00 | 99 | 1013.2 |
| 20260505084411 | 13 | 340 | 0.0 | 0.0 | 0.00 | 0.00 | 0.00 | 98 | 1013.2 |
| 20260505083905 | 13 | 340 | 0.0 | 0.0 | 0.00 | 0.00 | 0.00 | 99 | 1013.3 |
| 20260505083359 | 13 | 340 | 0.0 | 0.0 | 0.00 | 0.00 | 0.00 | 99 | 1013.3 |
| 20260505082852 | 13 | 340 | 0.0 | 0.0 | 0.00 | 0.00 | 0.00 | 99 | 1013.4 |
| 20260505082613 | 13 | 340 | 0.0 | 0.0 | 0.00 | 0.00 | 0.00 | 98 | 1013.4 |
| 20260505081840 | 14 | 340 | 0.0 | 0.0 | 0.00 | 0.00 | 0.00 | 98 | 1013.3 |
| 20260505081335 | 14 | 340 | 0.0 | 0.0 | 0.00 | 0.00 | 0.00 | 99 | 1013.2 |
| 20260505080830 | 14 | 340 | 0.0 | 0.0 | 0.00 | 0.00 | 0.00 | 99 | 1013.1 |
| 20260505080323 | 14 | 340 | 0.0 | 0.0 | 0.00 | 0.00 | 0.00 | 99 | 1013.1 |
| 20260505080042 | 14 | 340 | 0.0 | 0.0 | 0.00 | 0.00 | 0.00 | 98 | 1013.2 |
| 20260505075311 | 14 | 340 | 0.0 | 0.0 | 0.00 | 0.00 | 0.00 | 99 | 1013.3 |
| 20260505075006 | 14 | 340 | 0.0 | 0.0 | 0.00 | 0.00 | 0.00 | 99 | 1013.2 |
| 20260505074852 | 14 | 340 | 0.0 | 0.0 | 0.00 | 0.00 | 0.00 | 99 | 1013.2 |
| 20260505073752 | 14 | 340 | 0.0 | 0.0 | 0.00 | 0.00 | 0.00 | 98 | 1013.3 |
| 20260505073247 | 14 | 340 | 0.0 | 0.0 | 0.00 | 0.00 | 0.00 | 99 | 1013.4 |
| 20260505072745 | 14 | 340 | 0.0 | 0.0 | 0.00 | 0.00 | 0.00 | 99 | 1013.4 |
| 20260505072235 | 14 | 340 | 0.0 | 0.0 | 0.00 | 0.00 | 0.00 | 98 | 1013.4 |
| 20260505072221 | 14 | 340 | 0.0 | 0.0 | 0.00 | 0.00 | 0.00 | 98 | 1013.5 |
| 20260505071223 | 14 | 340 | 0.0 | 0.0 | 0.00 | 0.00 | 0.00 | 98 | 1013.4 |
| 20260505070717 | 14 | 340 | 0.0 | 0.0 | 0.00 | 0.00 | 0.00 | 98 | 1013.5 |
| 20260505070211 | 14 | 340 | 0.0 | 0.0 | 0.00 | 0.00 | 0.00 | 98 | 1013.4 |
| 20260505065705 | 14 | 340 | 0.0 | 0.0 | 0.00 | 0.00 | 0.00 | 98 | 1013.4 |
| 20260505065159 | 15 | 340 | 0.0 | 0.0 | 0.00 | 0.00 | 0.00 | 98 | 1013.4 |
| 20260505064921 | 15 | 340 | 0.0 | 0.0 | 0.00 | 0.00 | 0.00 | 98 | 1013.4 |
| 20260505064416 | 15 | 340 | 0.0 | 0.0 | 0.00 | 0.00 | 0.00 | 98 | 1013.4 |
| 20260505063650 | 14 | 340 | 0.0 | 0.0 | 0.00 | 0.00 | 0.00 | 98 | 1013.6 |
| 20260505063149 | 14 | 327 | 0.0 | 0.0 | 0.00 | 0.00 | 0.00 | 97 | 1013.6 |
| 20260505062650 | 14 | 327 | 0.0 | 0.0 | 0.00 | 0.00 | 0.00 | 98 | 1013.7 |
| 20260505062149 | 14 | 326 | 0.0 | 0.0 | 0.00 | 0.00 | 0.00 | 97 | 1013.9 |
| 20260505061646 | 14 | 326 | 0.0 | 0.0 | 0.00 | 0.00 | 0.00 | 97 | 1013.9 |
| 20260505061402 | 14 | 326 | 0.0 | 0.0 | 0.00 | 0.00 | 0.00 | 96 | 1014.0 |
| 20260505060647 | 14 | 327 | 0.0 | 0.0 | 0.00 | 0.00 | 0.00 | 96 | 1014.0 |
| 20260505060147 | 14 | 326 | 0.0 | 0.0 | 0.00 | 0.00 | 0.00 | 97 | 1013.9 |
| 20260505055647 | 15 | 327 | 0.0 | 0.0 | 0.00 | 0.00 | 0.00 | 97 | 1014.0 |
| 20260505055406 | 15 | 326 | 0.0 | 0.0 | 0.00 | 0.00 | 0.00 | 97 | 1014.0 |
| 20260505054646 | 14 | 326 | 0.0 | 0.0 | 0.00 | 0.00 | 0.00 | 96 | 1014.1 |
| 20260505054146 | 15 | 326 | 0.0 | 0.0 | 0.00 | 0.00 | 0.00 | 96 | 1014.2 |
| 20260505053644 | 15 | 326 | 0.0 | 0.0 | 0.00 | 0.00 | 0.00 | 95 | 1014.3 |
| 20260505053145 | 15 | 327 | 0.0 | 0.0 | 0.00 | 0.00 | 0.00 | 96 | 1014.2 |
| 20260505052646 | 15 | 326 | 0.0 | 0.0 | 0.00 | 0.00 | 0.00 | 95 | 1014.3 |
| 20260505052140 | 15 | 327 | 0.0 | 0.0 | 0.00 | 0.00 | 0.00 | 96 | 1014.3 |
| 20260505051639 | 15 | 326 | 0.0 | 0.0 | 0.00 | 0.00 | 0.00 | 95 | 1014.5 |
| 20260505051137 | 15 | 326 | 0.0 | 0.0 | 0.00 | 0.00 | 0.00 | 95 | 1014.4 |
| 20260505050636 | 15 | 326 | 0.0 | 0.0 | 0.00 | 0.00 | 0.00 | 94 | 1014.5 |
| 20260505050135 | 15 | 326 | 0.0 | 0.0 | 0.00 | 0.00 | 0.00 | 94 | 1014.5 |
| 20260505041635 | 16 | 48 | 0.0 | 0.0 | 0.00 | 0.00 | 0.00 | 89 | 1014.8 |
| 20260505041134 | 17 | 48 | 0.0 | 0.0 | 0.00 | 0.00 | 0.00 | 88 | 1014.7 |
| 20260505040634 | 17 | 48 | 0.0 | 0.0 | 0.00 | 0.00 | 0.00 | 87 | 1014.6 |
| 20260505040134 | 17 | 49 | 0.0 | 0.0 | 0.00 | 0.00 | 0.00 | 86 | 1014.7 |
| 20260505035635 | 18 | 49 | 0.0 | 0.0 | 0.00 | 0.00 | 0.00 | 86 | 1014.6 |
| 20260505035135 | 18 | 66 | 0.0 | 0.0 | 0.00 | 0.00 | 0.00 | 86 | 1014.5 |
| 20260505034634 | 18 | 75 | 0.0 | 0.0 | 0.00 | 0.00 | 0.00 | 86 | 1014.5 |
| 20260505034619 | 18 | 53 | 0.0 | 0.0 | 0.00 | 0.00 | 0.00 | 86 | 1014.6 |
| 20260505033856 | 18 | 65 | 0.0 | 0.0 | 0.00 | 0.00 | 0.00 | 86 | 1014.6 |
| 20260505033135 | 18 | 72 | 0.0 | 0.0 | 0.00 | 0.00 | 0.00 | 85 | 1014.6 |
| 20260505032634 | 18 | 57 | 0.0 | 0.0 | 0.00 | 0.00 | 0.00 | 85 | 1014.7 |
| 20260505032135 | 18 | 57 | 0.0 | 0.0 | 0.00 | 0.00 | 0.00 | 84 | 1014.8 |
| 20260505031633 | 18 | 57 | 1.6 | 4.8 | 0.00 | 0.00 | 0.00 | 84 | 1014.8 |
| 20260505031133 | 18 | 71 | 1.6 | 4.8 | 0.00 | 0.00 | 0.00 | 84 | 1014.8 |
| 20260505030858 | 18 | 57 | 0.0 | 3.2 | 0.00 | 0.00 | 0.00 | 85 | 1014.8 |
| 20260505030135 | 18 | 57 | 0.0 | 0.0 | 0.00 | 0.00 | 0.00 | 86 | 1014.8 |
| 20260505025633 | 18 | 57 | 0.0 | 0.0 | 0.00 | 0.00 | 0.00 | 82 | 1014.9 |
| 20260505025135 | 18 | 79 | 0.0 | 0.0 | 0.00 | 0.00 | 0.00 | 82 | 1014.9 |
| 20260505024635 | 18 | 57 | 0.0 | 0.0 | 0.00 | 0.00 | 0.00 | 83 | 1014.8 |
| 20260505024134 | 18 | 56 | 0.0 | 0.0 | 0.00 | 0.00 | 0.00 | 82 | 1014.9 |
| 20260505023850 | 19 | 56 | 0.0 | 0.0 | 0.00 | 0.00 | 0.00 | 82 | 1014.8 |
| 20260505023131 | 19 | 65 | 0.0 | 0.0 | 0.00 | 0.00 | 0.00 | 81 | 1014.8 |
| 20260505022632 | 19 | 70 | 0.0 | 0.0 | 0.00 | 0.00 | 0.00 | 80 | 1014.9 |
| 20260505022125 | 19 | 85 | 0.0 | 0.0 | 0.00 | 0.00 | 0.00 | 81 | 1014.8 |
| 20260505021624 | 19 | 77 | 0.0 | 0.0 | 0.00 | 0.00 | 0.00 | 81 | 1014.8 |
| 20260505021123 | 19 | 53 | 0.0 | 4.8 | 0.00 | 0.00 | 0.00 | 81 | 1014.8 |
| 20260505020619 | 19 | 56 | 1.6 | 4.8 | 0.00 | 0.00 | 0.00 | 81 | 1014.7 |
| 20260505020119 | 20 | 74 | 0.0 | 4.8 | 0.00 | 0.00 | 0.00 | 81 | 1014.7 |
| 20260505015620 | 20 | 51 | 0.0 | 0.0 | 0.00 | 0.00 | 0.00 | 80 | 1014.7 |
| 20260505015117 | 20 | 58 | 0.0 | 0.0 | 0.00 | 0.00 | 0.00 | 80 | 1014.8 |
| 20260505014617 | 20 | 55 | 0.0 | 1.6 | 0.00 | 0.00 | 0.00 | 79 | 1014.7 |
| 20260505014112 | 20 | 52 | 1.6 | 4.8 | 0.00 | 0.00 | 0.00 | 79 | 1014.8 |
| 20260505013606 | 20 | 72 | 1.6 | 4.8 | 0.00 | 0.00 | 0.00 | 79 | 1014.6 |
| 20260505013059 | 20 | 56 | 1.6 | 4.8 | 0.00 | 0.00 | 0.00 | 78 | 1014.5 |
| 20260505012554 | 20 | 62 | 1.6 | 4.8 | 0.00 | 0.00 | 0.00 | 78 | 1014.7 |
| 20260505012048 | 20 | 53 | 1.6 | 4.8 | 0.00 | 0.00 | 0.00 | 77 | 1014.6 |
| 20260505011542 | 20 | 68 | 1.6 | 4.8 | 0.00 | 0.00 | 0.00 | 78 | 1014.5 |
| 20260505011532 | 20 | 65 | 1.6 | 6.4 | 0.00 | 0.00 | 0.00 | 77 | 1014.4 |
| 20260505010750 | 21 | 40 | 1.6 | 6.4 | 0.00 | 0.00 | 0.00 | 77 | 1014.4 |
| 20260505010024 | 21 | 55 | 3.2 | 9.7 | 0.00 | 0.00 | 0.00 | 76 | 1014.3 |
| 20260505005519 | 21 | 52 | 3.2 | 9.7 | 0.00 | 0.00 | 0.00 | 76 | 1014.3 |
| 20260505005010 | 21 | 49 | 3.2 | 8.0 | 0.00 | 0.00 | 0.00 | 76 | 1014.3 |
| 20260505004504 | 21 | 68 | 3.2 | 8.0 | 0.00 | 0.00 | 0.00 | 75 | 1014.2 |
| 20260505003958 | 21 | 63 | 3.2 | 8.0 | 0.00 | 0.00 | 0.00 | 74 | 1014.2 |
| 20260505003712 | 21 | 14 | 4.8 | 11.3 | 0.00 | 0.00 | 0.00 | 74 | 1014.1 |
| 20260505003207 | 21 | 62 | 4.8 | 11.3 | 0.00 | 0.00 | 0.00 | 73 | 1014.1 |
| 20260505002440 | 21 | 63 | 4.8 | 12.9 | 0.00 | 0.00 | 0.00 | 72 | 1014.1 |
| 20260505001934 | 21 | 57 | 4.8 | 12.9 | 0.00 | 0.00 | 0.00 | 72 | 1014.2 |
| 20260505001428 | 22 | 68 | 6.4 | 14.5 | 0.00 | 0.00 | 0.00 | 71 | 1014.1 |
| 20260505000922 | 22 | 57 | 6.4 | 14.5 | 0.00 | 0.00 | 0.00 | 71 | 1014.0 |
| 20260505000415 | 22 | 46 | 6.4 | 11.3 | 0.00 | 0.00 | 0.00 | 71 | 1013.8 |
| 20260504235911 | 22 | 46 | 8.0 | 19.3 | 0.00 | 0.00 | 0.00 | 70 | 1013.7 |
| 20260504235404 | 22 | 54 | 9.7 | 20.9 | 0.00 | 0.00 | 0.00 | 69 | 1013.6 |
| 20260504234858 | 22 | 48 | 9.7 | 20.9 | 0.00 | 0.00 | 0.00 | 69 | 1013.6 |
| 20260504234352 | 22 | 63 | 9.7 | 19.3 | 0.00 | 0.00 | 0.00 | 68 | 1013.6 |
| 20260504233846 | 22 | 45 | 9.7 | 22.5 | 0.00 | 0.00 | 0.00 | 67 | 1013.4 |
| 20260504233340 | 23 | 43 | 9.7 | 22.5 | 0.00 | 0.00 | 0.00 | 67 | 1013.4 |
| 20260504232833 | 23 | 86 | 9.7 | 20.9 | 0.00 | 0.00 | 0.00 | 67 | 1013.3 |
| 20260504232328 | 23 | 48 | 9.7 | 20.9 | 0.00 | 0.00 | 0.00 | 67 | 1013.2 |
| 20260504231822 | 23 | 39 | 11.3 | 19.3 | 0.00 | 0.00 | 0.00 | 67 | 1013.2 |
| 20260504231316 | 23 | 70 | 11.3 | 20.9 | 0.00 | 0.00 | 0.00 | 66 | 1013.2 |
| 20260504230810 | 23 | 63 | 11.3 | 20.9 | 0.00 | 0.00 | 0.00 | 66 | 1013.2 |
| 20260504230304 | 23 | 38 | 11.3 | 22.5 | 0.00 | 0.00 | 0.00 | 66 | 1013.1 |
| 20260504225758 | 23 | 56 | 9.7 | 22.5 | 0.00 | 0.00 | 0.00 | 66 | 1013.2 |
| 20260504225252 | 23 | 32 | 8.0 | 17.7 | 0.00 | 0.00 | 0.00 | 66 | 1013.2 |
| 20260504224746 | 23 | 51 | 9.7 | 20.9 | 0.00 | 0.00 | 0.00 | 66 | 1013.2 |
| 20260504224504 | 23 | 76 | 11.3 | 22.5 | 0.00 | 0.00 | 0.00 | 65 | 1013.3 |
| 20260504223951 | 23 | 56 | 11.3 | 22.5 | 0.00 | 0.00 | 0.00 | 65 | 1013.3 |
| 20260504223449 | 24 | 84 | 11.3 | 22.5 | 0.00 | 0.00 | 0.00 | 65 | 1013.3 |
| 20260504222944 | 24 | 38 | 11.3 | 22.5 | 0.00 | 0.00 | 0.00 | 65 | 1013.3 |
| 20260504222216 | 24 | 49 | 11.3 | 20.9 | 0.00 | 0.00 | 0.00 | 65 | 1013.5 |
| 20260504222200 | 24 | 63 | 11.3 | 27.4 | 0.00 | 0.00 | 0.00 | 65 | 1013.5 |
| 20260504221204 | 24 | 69 | 12.9 | 27.4 | 0.00 | 0.00 | 0.00 | 63 | 1013.3 |
| 20260504220658 | 24 | 56 | 11.3 | 24.1 | 0.00 | 0.00 | 0.00 | 63 | 1013.3 |
| 20260504220152 | 25 | 68 | 9.7 | 22.5 | 0.00 | 0.00 | 0.00 | 64 | 1013.4 |
| 20260504215645 | 25 | 56 | 11.3 | 22.5 | 0.00 | 0.00 | 0.00 | 64 | 1013.3 |
| 20260504215140 | 25 | 80 | 11.3 | 22.5 | 0.00 | 0.00 | 0.00 | 63 | 1013.3 |
| 20260504214634 | 25 | 82 | 9.7 | 20.9 | 0.00 | 0.00 | 0.00 | 63 | 1013.3 |
| 20260504214128 | 25 | 60 | 9.7 | 20.9 | 0.00 | 0.00 | 0.00 | 63 | 1013.2 |
| 20260504213622 | 25 | 18 | 9.7 | 20.9 | 0.00 | 0.00 | 0.00 | 64 | 1013.2 |
| 20260504213116 | 24 | 77 | 9.7 | 20.9 | 0.00 | 0.00 | 0.00 | 64 | 1013.3 |
| 20260504212610 | 25 | 56 | 9.7 | 20.9 | 0.00 | 0.00 | 0.00 | 62 | 1013.3 |
| 20260504212326 | 25 | 56 | 9.7 | 24.1 | 0.00 | 0.00 | 0.00 | 62 | 1013.2 |
| 20260504211557 | 25 | 45 | 9.7 | 24.1 | 0.00 | 0.00 | 0.00 | 62 | 1013.2 |
| 20260504211052 | 25 | 25 | 8.0 | 16.1 | 0.00 | 0.00 | 0.00 | 62 | 1013.2 |
| 20260504210546 | 25 | 32 | 8.0 | 16.1 | 0.00 | 0.00 | 0.00 | 61 | 1013.4 |
| 20260504210040 | 25 | 34 | 8.0 | 14.5 | 0.00 | 0.00 | 0.00 | 59 | 1013.3 |
| 20260504205534 | 25 | 73 | 9.7 | 17.7 | 0.00 | 0.00 | 0.00 | 59 | 1013.4 |
| 20260504205258 | 25 | 77 | 9.7 | 19.3 | 0.00 | 0.00 | 0.00 | 59 | 1013.5 |
| 20260504204522 | 26 | 77 | 8.0 | 19.3 | 0.00 | 0.00 | 0.00 | 59 | 1013.4 |
| 20260504204016 | 26 | 57 | 8.0 | 19.3 | 0.00 | 0.00 | 0.00 | 59 | 1013.4 |
| 20260504203509 | 26 | 83 | 8.0 | 19.3 | 0.00 | 0.00 | 0.00 | 58 | 1013.4 |
| 20260504203004 | 25 | 115 | 8.0 | 20.9 | 0.00 | 0.00 | 0.00 | 57 | 1013.5 |
| 20260504202725 | 25 | 48 | 6.4 | 20.9 | 0.00 | 0.00 | 0.00 | 58 | 1013.5 |
| 20260504201952 | 25 | 70 | 6.4 | 20.9 | 0.00 | 0.00 | 0.00 | 60 | 1013.6 |
| 20260504201934 | 25 | 56 | 9.7 | 20.9 | 0.00 | 0.00 | 0.00 | 59 | 1013.7 |
| 20260504200940 | 25 | 75 | 11.3 | 20.9 | 0.00 | 0.00 | 0.00 | 60 | 1013.7 |
| 20260504200434 | 25 | 56 | 9.7 | 19.3 | 0.00 | 0.00 | 0.00 | 60 | 1013.7 |
| 20260504195928 | 25 | 34 | 9.7 | 19.3 | 0.00 | 0.00 | 0.00 | 61 | 1013.7 |
| 20260504195421 | 25 | 51 | 9.7 | 22.5 | 0.00 | 0.00 | 0.00 | 60 | 1013.7 |
| 20260504194916 | 26 | 72 | 8.0 | 22.5 | 0.00 | 0.00 | 0.00 | 59 | 1013.8 |
| 20260504194410 | 26 | 108 | 9.7 | 20.9 | 0.00 | 0.00 | 0.00 | 58 | 1013.9 |
| 20260504193904 | 25 | 57 | 11.3 | 20.9 | 0.00 | 0.00 | 0.00 | 59 | 1013.9 |
| 20260504193358 | 25 | 57 | 11.3 | 20.9 | 0.00 | 0.00 | 0.00 | 58 | 1014.0 |
| 20260504192852 | 25 | 32 | 9.7 | 20.9 | 0.00 | 0.00 | 0.00 | 58 | 1014.0 |
| 20260504192346 | 25 | 122 | 9.7 | 19.3 | 0.00 | 0.00 | 0.00 | 60 | 1014.0 |
| 20260504191839 | 25 | 58 | 9.7 | 19.3 | 0.00 | 0.00 | 0.00 | 58 | 1014.1 |
| 20260504191333 | 25 | 51 | 9.7 | 19.3 | 0.00 | 0.00 | 0.00 | 57 | 1014.2 |
| 20260504190828 | 25 | 58 | 8.0 | 19.3 | 0.00 | 0.00 | 0.00 | 57 | 1014.3 |
| 20260504190322 | 25 | 56 | 6.4 | 17.7 | 0.00 | 0.00 | 0.00 | 57 | 1014.3 |
| 20260504185815 | 26 | 4 | 6.4 | 14.5 | 0.00 | 0.00 | 0.00 | 57 | 1014.4 |
| 20260504185310 | 26 | 23 | 9.7 | 19.3 | 0.00 | 0.00 | 0.00 | 56 | 1014.6 |
| 20260504184804 | 25 | 60 | 9.7 | 20.9 | 0.00 | 0.00 | 0.00 | 59 | 1014.6 |
| 20260504184258 | 25 | 58 | 8.0 | 20.9 | 0.00 | 0.00 | 0.00 | 58 | 1014.7 |
| 20260504183752 | 25 | 75 | 6.4 | 16.1 | 0.00 | 0.00 | 0.00 | 55 | 1014.7 |
| 20260504183246 | 25 | 82 | 8.0 | 20.9 | 0.00 | 0.00 | 0.00 | 56 | 1014.8 |
| 20260504183001 | 25 | 42 | 8.0 | 20.9 | 0.00 | 0.00 | 0.00 | 58 | 1014.8 |
| 20260504182237 | 25 | 44 | 8.0 | 19.3 | 0.00 | 0.00 | 0.00 | 59 | 1015.0 |
| 20260504181741 | 25 | 54 | 9.7 | 19.3 | 0.00 | 0.00 | 0.00 | 59 | 1015.1 |
| 20260504181237 | 25 | 78 | 6.4 | 16.1 | 0.00 | 0.00 | 0.00 | 58 | 1015.0 |
| 20260504180736 | 25 | 68 | 8.0 | 19.3 | 0.00 | 0.00 | 0.00 | 58 | 1015.0 |
| 20260504180730 | 25 | 20 | 9.7 | 27.4 | 0.00 | 0.00 | 0.00 | 59 | 1015.1 |
| 20260504175746 | 25 | 46 | 9.7 | 27.4 | 0.00 | 0.00 | 0.00 | 60 | 1015.1 |
| 20260504175238 | 25 | 69 | 8.0 | 14.5 | 0.00 | 0.00 | 0.00 | 57 | 1015.1 |
| 20260504174735 | 25 | 65 | 6.4 | 14.5 | 0.00 | 0.00 | 0.00 | 59 | 1015.2 |
| 20260504174233 | 25 | 72 | 6.4 | 20.9 | 0.00 | 0.00 | 0.00 | 58 | 1015.1 |
| 20260504173734 | 25 | 39 | 6.4 | 20.9 | 0.00 | 0.00 | 0.00 | 59 | 1015.1 |
| 20260504173240 | 25 | 26 | 8.0 | 24.1 | 0.00 | 0.00 | 0.00 | 58 | 1015.4 |
| 20260504173234 | 25 | 352 | 8.0 | 19.3 | 0.00 | 0.00 | 0.00 | 58 | 1015.2 |
| 20260504172447 | 25 | 53 | 6.4 | 19.3 | 0.00 | 0.00 | 0.00 | 57 | 1015.5 |
| 20260504172329 | 25 | 74 | 6.4 | 24.1 | 0.00 | 0.00 | 0.00 | 60 | 1015.4 |
| 20260504171233 | 25 | 50 | 8.0 | 16.1 | 0.00 | 0.00 | 0.00 | 58 | 1015.4 |
| 20260504170734 | 25 | 84 | 9.7 | 24.1 | 0.00 | 0.00 | 0.00 | 57 | 1015.5 |
| 20260504170450 | 25 | 57 | 8.0 | 24.1 | 0.00 | 0.00 | 0.00 | 59 | 1015.6 |
| 20260504160227 | 24 | 82 | 8.0 | 19.3 | 0.00 | 0.00 | 0.00 | 57 | 1016.2 |
| 20260504150722 | 23 | 13 | 8.0 | 17.7 | 0.00 | 0.00 | 0.00 | 52 | 1016.3 |
| 20260504150710 | 23 | 68 | 8.0 | 17.7 | 0.00 | 0.00 | 0.00 | 53 | 1016.3 |
| 20260504141215 | 23 | 33 | 4.8 | 14.5 | 0.00 | 0.00 | 0.00 | 56 | 1016.2 |
| 20260504140714 | 23 | 75 | 3.2 | 14.5 | 0.00 | 0.00 | 0.00 | 58 | 1016.2 |
| 20260504140213 | 23 | 32 | 4.8 | 16.1 | 0.00 | 0.00 | 0.00 | 57 | 1016.2 |
| 20260504130653 | 22 | 36 | 6.4 | 16.1 | 0.00 | 0.00 | 0.00 | 77 | 1016.1 |
| 20260504130146 | 21 | 39 | 4.8 | 14.5 | 0.00 | 0.00 | 0.00 | 77 | 1016.0 |